Weather History for Culdrose, United Kingdom

Change the Weather History Date:

Tuesday, January 14, 2014

  Actual Average Record
Temperature  
Mean Temperature 42 °F -  
Max Temperature 50 °F 46 °F 53 °F (2002)
Min Temperature 33 °F 39 °F 33 °F (2000)
Degree Days  
Heating Degree Days 24    
Moisture  
Dew Point 40 °F    
Average Humidity 85    
Maximum Humidity 100    
Minimum Humidity 59    
Precipitation  
Precipitation 0.04 in - - ()
Sea Level Pressure  
Sea Level Pressure 29.68 in    
Wind  
Wind Speed 8 mph ()    
Max Wind Speed 18 mph    
Max Gust Speed 32 mph    
Visibility 6.4 miles    
Events Fog , Rain    
Averages and records for this station are not official NWS values.
T = Trace of Precipitation, MM = Missing Value Source: Averaged Metar Reports

Daily Weather History Graph

Daily Weather History Graph

Search for Another Location

Airport:

Trip Planner

Search our weather history database for the weather conditions in past years. The results will help you decide how hot, cold, wet, or windy it might be!

Date:

Astronomy

Jan. 14, 2014 Rise Set
Actual Time 8:14 AM GMT 4:45 PM GMT
Civil Twilight 7:37 AM GMT 5:22 PM GMT
Nautical Twilight 6:57 AM GMT 6:03 PM GMT
Astronomical Twilight 6:18 AM GMT 6:42 PM GMT
Moon 3:41 PM GMT (1/14) 6:36 AM GMT (1/14)
Length of Visible Light 9h 45m
Length of Day
8h 30m
Waxing Gibbous, 97% of the Moon is Illuminated
Jan 14
Waxing Gibbous
Jan 16
Full
Jan 24
Last Quarter
Jan 30
New
Feb 6
First Quarter

Hourly Weather History & Observations

Time (GMT) Temp. Windchill Dew Point Humidity Pressure Visibility Wind Dir Wind Speed Gust Speed Precip Events Conditions
12:00 AM 38 °F - 34 °F 78% 29.62 in 11 mi NW 6.9 mph - -   Haze
12:50 AM 37.4 °F 32.1 °F 33.8 °F 87% 29.59 in 6.2 mi NW 6.9 mph - N/A   Partly Cloudy
1:00 AM 38 °F - 34 °F 80% 29.63 in 11 mi NW 6.9 mph - - Rain Light Rain Showers
1:50 AM 37.4 °F 34.9 °F 33.8 °F 87% 29.62 in 6.2 mi NW 3.5 mph - N/A   Partly Cloudy
2:00 AM 37 °F - 34 °F 85% 29.65 in 11 mi NW 3.5 mph - -   Haze
2:50 AM 37.4 °F 32.1 °F 33.8 °F 87% 29.62 in 6.2 mi NNW 6.9 mph - N/A   Partly Cloudy
3:00 AM 38 °F - 33 °F 76% 29.66 in 16 mi NNW 6.9 mph - -   Partly Cloudy
3:50 AM 37.4 °F 31.4 °F 33.8 °F 87% 29.65 in 6.2 mi NW 8.1 mph - N/A   Partly Cloudy
4:00 AM 38 °F - 33 °F 77% 29.67 in 12 mi NW 8.1 mph - -   Scattered Clouds
4:50 AM 37.4 °F 32.1 °F 33.8 °F 87% 29.65 in 6.2 mi NW 6.9 mph - N/A   Partly Cloudy
5:00 AM 37 °F - 34 °F 84% 29.68 in 16 mi NW 6.9 mph - -   Scattered Clouds
5:50 AM 39.2 °F 34.2 °F 32.0 °F 75% 29.68 in 6.2 mi WNW 6.9 mph - N/A   Partly Cloudy
6:00 AM 39 °F - 33 °F 70% 29.70 in 12 mi WNW 6.9 mph - -   Partly Cloudy
6:50 AM 39.2 °F 34.2 °F 32.0 °F 75% 29.68 in 6.2 mi WNW 6.9 mph - N/A   Partly Cloudy
7:00 AM 39 °F - 33 °F 70% 29.72 in 16 mi WNW 6.9 mph - -   Scattered Clouds
7:50 AM 37.4 °F 32.8 °F 32.0 °F 81% 29.71 in 6.2 mi West 5.8 mph - N/A   Mostly Cloudy
8:00 AM 38 °F - 33 °F 74% 29.73 in 14 mi West 5.8 mph - -   Partly Cloudy
8:50 AM 33.8 °F - 30.2 °F 87% 29.71 in 6.2 mi NW 2.3 mph - N/A   Scattered Clouds
9:00 AM 34 °F - 31 °F 82% 29.74 in 16 mi NW 2.3 mph - -   Scattered Clouds
9:50 AM 42.8 °F 40.1 °F 35.6 °F 76% 29.74 in 6.2 mi West 4.6 mph - N/A   Scattered Clouds
10:00 AM 43 °F - 36 °F 68% 29.76 in 12 mi West 4.6 mph - -   Scattered Clouds
10:50 AM 44.6 °F 40.2 °F 37.4 °F 76% 29.74 in 6.2 mi WSW 8.1 mph - N/A   Mostly Cloudy
11:00 AM 45 °F - 38 °F 67% 29.75 in 14 mi WSW 8.1 mph - -   Scattered Clouds
11:50 AM 46.4 °F 40.4 °F 35.6 °F 66% 29.74 in 6.2 mi SW 13.8 mph - N/A Rain Light Rain
12:00 PM 46 °F - 36 °F 59% 29.76 in 16 mi SW 13.8 mph - - Rain Light Rain
12:50 PM 48.2 °F - 37.4 °F 66% 29.74 in 6.2 mi SW 16.1 mph - N/A   Overcast
1:00 PM 47 °F - 37 °F 59% 29.75 in 12 mi SW 16.1 mph - - Rain Light Rain
1:50 PM 46.4 °F 39.8 °F 41.0 °F 81% 29.71 in 6.2 mi SW 16.1 mph - N/A Rain Light Rain
2:00 PM 46 °F - 41 °F 78% 29.73 in 7 mi SW 16.1 mph - - Rain Light Rain
2:50 PM 46.4 °F 39.8 °F 41.0 °F 81% 29.68 in 3.1 mi SSW 16.1 mph 28.8 mph N/A Rain Light Rain
3:00 PM 46 °F - 41 °F 77% 29.70 in 3 mi SSW 16.1 mph - - Rain Light Rain
3:12 PM 46.4 °F 39.5 °F 42.8 °F 87% 29.68 in 1.9 mi SSW 17.3 mph 28.8 mph N/A   Drizzle
3:50 PM 46.4 °F 39.2 °F 46.4 °F 100% 29.68 in 1.2 mi SSW 18.4 mph 32.2 mph N/A Rain Rain
4:00 PM 46 °F - 46 °F 97% 29.69 in 1 mi SSW 18.4 mph - - Rain Heavy Rain
4:50 PM 48.2 °F - 48.2 °F 100% 29.65 in 0.4 mi SW 17.3 mph - N/A   Drizzle
5:00 PM 49 °F - 48 °F 97% 29.66 in 0 mi SW 17.3 mph - - Rain Drizzle
5:50 PM 50.0 °F - 50.0 °F 100% 29.62 in 0.4 mi WSW 15.0 mph 26.5 mph N/A Fog Fog
6:00 PM 50 °F - 50 °F 99% 29.65 in 0 mi WSW 15.0 mph - - Fog Partial Fog
6:50 PM 50.0 °F - 50.0 °F 100% 29.62 in 2.5 mi West 11.5 mph - N/A   Light Drizzle
7:00 PM 50 °F - 50 °F 99% 29.65 in 2 mi West 11.5 mph - - Rain Light Drizzle
7:50 PM 50.0 °F - 50.0 °F 100% 29.65 in 2.2 mi West 10.4 mph - N/A   Overcast
8:00 PM 50 °F - 50 °F 100% 29.66 in 2 mi West 10.4 mph - - Rain Light Drizzle
8:50 PM 50.0 °F - 50.0 °F 100% 29.65 in 1.6 mi West 11.5 mph - N/A   Overcast
9:00 PM 50 °F - 50 °F 100% 29.66 in 2 mi West 11.5 mph - -   Mist
9:50 PM 50.0 °F - 50.0 °F 100% 29.62 in 0.7 mi West 11.5 mph 23.0 mph N/A   Light Drizzle
10:00 PM 50 °F - 50 °F 100% 29.65 in 1 mi West 11.5 mph - - Rain Light Drizzle
10:50 PM 50.0 °F - 50.0 °F 100% 29.62 in 1.9 mi West 11.5 mph - N/A   Overcast
11:00 PM 50 °F - 50 °F 99% 29.64 in 2 mi West 11.5 mph - - Rain Light Drizzle
11:50 PM 50.0 °F - 50.0 °F 100% 29.62 in 2.2 mi WSW 16.1 mph - N/A   Overcast